Location: Buch
(50.1863°N, 11.0141°E)
Time: 16:13:32
(UTC+00:00)

BREEZE M DEB (TANK) - Pass Details

Date: 18 January 2020
Orbit: 297 x 14514 km, 49.6° (Epoch: 25 February)

Event Time Altitude Azimuth Distance (km) Brightness Sun altitude
Exits shadow 04:45:48 27° 270° (W) 5,242 6.6 -22.1°
Maximum altitude 04:56:30 87° 183° (S) 1,573 4.5 -20.4°
Drops below altitude 10° 05:01:43 10° 96° (E) 2,402 6.8 -19.5°
Sets 05:03:07 0° 95° (E) 2,980 7.7 -19.3°
